sanya , China , ASIA

  • Thursday
    November 21

      Cloudy

      68 °F

      No wind

       

  • Friday
    November 22

    Cloudy  Cloudy

    82 °F  66 °F

    No wind  No wind

        

  • Saturday
    November 23

    Cloudy  Cloudy

    82 °F  72 °F

    East  No wind

    3~4L    

  • Sunday
    November 24

    Cloudy  Cloudy

    82 °F  72 °F

    East  No wind

    3~4L    

  • Monday
    November 25

    Light rain  Light rain

    82 °F  73 °F

    No wind  Northeast

       3~4L 

  • Tuesday
    November 26

    Light rain  Cloudy

    82 °F  75 °F

    East  Northeast

    4~5L   3~4L 

  • Wednesday
    November 27

    Sunny  Cloudy

    82 °F  73 °F

    East  Northeast

    3~4L   3~4L 

Date   Weather Temperature Humidity Total_rain Visibility Wind
23:00 Cloudy 70°F 90.1% 0mm 999.9km Northeast  5.9m/s
02:00 Cloudy 70°F 88.9% 0mm 999.9km Northeast  5.5m/s
05:00 Cloudy 68°F 86.8% 0mm 999.9km Northeast  5.5m/s
08:00 Cloudy 72°F 83.1% 0mm 999.9km Northeast  5.6m/s
11:00 Cloudy 79°F 75.2% 0mm 999.9km Northeast  5.9m/s
14:00 Cloudy 82°F 74.2% 0mm 999.9km Northeast  4.9m/s
17:00 Cloudy 79°F 80% 0mm 999.9km Northeast  3.1m/s
20:00 Cloudy 75°F 85.9% 0mm 999.9km Northeast  2.6m/s
23:00 Cloudy 71°F 92.2% 0mm 999.9km Northeast  2.9m/s
02:00 Cloudy 68°F 93.3% 0mm 999.9km Northeast  3.5m/s
05:00 Cloudy 67°F 93.5% 0mm 999.9km Northeast  3.8m/s
08:00 Cloudy 71°F 90.6% 0mm 999.9km Northeast  3.9m/s
11:00 Cloudy 79°F 80.4% 0mm 999.9km Northeast  3.8m/s
14:00 Cloudy 82°F 77.9% 0mm 999.9km Northeast  3.2m/s
17:00 Cloudy 79°F 83.8% 0mm 999.9km Northeast  2.8m/s
20:00 Cloudy 73°F 72.4% 0mm 999.9km Northeast  3.1m/s
23:00 Cloudy 73°F 95.4% 0mm 999.9km Northeast  3.7m/s
02:00 Cloudy 73°F 95.2% 0mm 999.9km Northeast  4.2m/s
05:00 Cloudy 72°F 94.9% 0mm 999.9km Northeast  4.4m/s
08:00 Cloudy 75°F 93% 0mm 999.9km Northeast  4.4m/s
11:00 Cloudy 81°F 83.8% 0mm 999.9km Northeast  4.7m/s
14:00 Cloudy 83°F 81.3% 0mm 999.9km Northeast  4.4m/s
17:00 Cloudy 81°F 87.7% 0mm 999.9km Northeast  4.1m/s
20:00 Cloudy 77°F 76% 0mm 999.9km Northeast  4.1m/s
23:00 Cloudy 76°F 94.5% 0mm 999.9km Northeast  4.4m/s
02:00 Cloudy 75°F 94.5% 0mm 999.9km Northeast  4.7m/s
05:00 Cloudy 73°F 94.7% 0mm 999.9km Northeast  4.9m/s
08:00 Cloudy 75°F 93.4% 0mm 999.9km Northeast  5.4m/s
11:00 Light rain 80°F 84.5% 2.3mm 999.9km Northeast  6.4m/s
14:00 Light rain 82°F 81% 2.3mm 999.9km Northeast  5.7m/s
17:00 Light rain 80°F 87.8% 2.3mm 999.9km Northeast  4.7m/s
20:00 Light rain 77°F 76% 2.3mm 999.9km Northeast  4.8m/s
23:00 Cloudy 77°F 95.3% 0mm 999.9km Northeast  5.2m/s
02:00 Cloudy 76°F 94.9% 0mm 999.9km Northeast  5.8m/s
05:00 Light rain 75°F 94.3% 0.1mm 999.9km Northeast  6.3m/s
08:00 Cloudy 77°F 91.4% 0mm 999.9km Northeast  6.8m/s
11:00 Light rain 82°F 88.7% 0.3mm 999.9km Northeast  9.1m/s
14:00 Cloudy 83°F 83.1% 0mm 999.9km Northeast  6.8m/s
17:00 Light rain 80°F 94.5% 0.5mm 999.9km Northeast  8.9m/s
20:00 Cloudy 79°F 79.2% 0mm 999.9km Northeast  7.0m/s
23:00 Cloudy 78°F 94.8% 0mm 999.9km Northeast  9.4m/s
02:00 Cloudy 76°F 92.9% 0mm 999.9km Northeast  6.7m/s
05:00 Cloudy 76°F 92.3% 0mm 999.9km Northeast  8.5m/s
08:00 Cloudy 77°F 91.6% 0mm 999.9km Northeast  7.0m/s
11:00 Sunny 83°F 90.1% 0mm 999.9km Northeast  8.4m/s
14:00 Sunny 82°F 87.8% 0mm 999.9km Northeast  7.5m/s
17:00 Sunny 81°F 84.7% 0mm 999.9km Northeast  10.0m/s
20:00 Sunny 79°F 82.7% 0mm 999.9km Northeast  6.9m/s
23:00 Cloudy 78°F 93.6% 0mm 999.9km Northeast  8.3m/s
02:00 Cloudy 74°F 91.7% 0mm 999.9km Northeast  6.6m/s
05:00 Cloudy 75°F 91.1% 0mm 999.9km Northeast  8.6m/s